Weather in Oster

Russia / Smolensk Oblast     54°00′48″N   32°47′59″E
temp.,
°C
wind,
m/s
gust,
m/s
humid.,
%
clouds,
%
prec.,
mm/h
press.,
hPa
HPBL,
m
13 april, tue
tue1300:00+9ene2392100 0.0 102248
03:00+9se2294100 0.0 102119
06:00+8se229398 0.0 102114
09:00+12sse4980100 0.0 1021306
12:00+17sse595589 0.0 10201354
15:00+17sse6760100 0.5 10201294
18:00+14ssw3778100 0.3 1019591
21:00+11sse2589100 0.3 1019140
14 april, wed
wed1400:00+10sse249470 0.6 101898
03:00+9sse369887 1.3 1018149
06:00+8sse259795 0.1 1017113
09:00+10sse3693100 0.1 1018318
12:00+13sse347192 0.0 1017765
15:00+12ese3382100 0.1 1016272
18:00+13ese2374100 0.0 1015253
21:00+10ese2596100 2.6 1015141
15 april, thu
thu1500:00+9e2596100 0.3 1014154
03:00+9ese2497100 0.5 101494
06:00+8sse229598 0.0 101544
09:00+11se3582100 0.0 1015307
12:00+13ese4570100 0.5 1015707
15:00+10e3688100 0.6 1014392
18:00+9e2596100 1.6 1014228
21:00+9ene3790100 2.4 1014224
16 april, fri
fri1600:00+8e239479 0.3 101443
03:00+7ene22940 0.3 101425
06:00+6ene359690 0.0 1015111
09:00+8ene4890100 0.0 1015363
12:00+10ene4886100 0.4 1016587
15:00+12ene7977100 1.2 1016922
18:00+11ne599099 1.5 1017510
21:00+9ne3995100 1.8 1018273
17 april, sat
sat1700:00+9ene71592100 0.4 1019611
03:00+9ene61389100 0.8 1020576
06:00+7ene61390100 0.7 1022578
09:00+8ene7128193 0.7 1023660
12:00+12ene7106625 0.0 10241043
15:00+13ene810515 0.0 10241361
18:00+12ene711493 0.0 10251332
21:00+8ene512610 0.0 1027379